Location: Pinawa
(50.1500°N, 95.8830°W)
Time: 22:39:15
(UTC-05:00)

ISS - All Passes

Search period start: 28 June 2016 00:00
Search period end: 08 July 2016 00:00
Orbit: 402 x 403 km, 51.6° (Epoch: 28 June)

Date Brightness Start Highest point End Pass type
(mag) Time Alt. Az. Time Alt. Az. Time Alt. Az.
28 Jun - 09:11:38 10° SSE 09:12:46 11° SE 09:13:53 10° ESE daylight
28 Jun - 10:45:26 10° SW 10:48:37 50° SSE 10:51:48 10° ENE daylight
28 Jun - 12:21:46 10° W 12:25:02 68° N 12:28:19 10° ENE daylight
28 Jun - 13:58:20 10° WNW 14:01:37 83° NNE 14:04:54 10° ESE daylight
28 Jun - 15:34:57 10° W 15:37:53 30° SSW 15:40:48 10° SSE daylight
29 Jun - 09:52:59 10° SW 09:55:57 33° SSE 09:58:56 10° E daylight
29 Jun - 11:28:58 10° W 11:32:14 80° NNW 11:35:31 10° ENE daylight
29 Jun - 13:05:33 10° WNW 13:08:50 70° N 13:12:06 10° E daylight
29 Jun - 14:42:05 10° WNW 14:45:14 46° SSW 14:48:23 10° SE daylight
29 Jun - 16:20:30 10° SW 16:21:02 10° SW 16:21:34 10° SW daylight
30 Jun - 09:00:48 10° SSW 09:03:21 21° SE 09:05:55 10° E daylight
30 Jun - 10:36:11 10° WSW 10:39:28 80° SSE 10:42:44 10° ENE daylight
30 Jun - 12:12:45 10° W 12:16:01 64° N 12:19:16 10° E daylight
30 Jun - 13:49:16 10° WNW 13:52:31 69° SSW 13:55:47 10° ESE daylight
30 Jun - 15:26:19 10° W 15:28:32 17° SW 15:30:45 10° S daylight
01 Jul - 08:09:10 10° SSE 08:10:48 13° SE 08:12:28 10° ESE daylight
01 Jul - 09:43:30 10° SW 09:46:43 56° SSE 09:49:57 10° ENE daylight
01 Jul - 11:19:55 10° W 11:23:11 66° N 11:26:27 10° E daylight
01 Jul - 12:56:28 10° WNW 12:59:46 88° NNE 13:03:02 10° ESE daylight
01 Jul - 14:33:09 10° W 14:35:57 26° SW 14:38:46 10° SSE daylight
02 Jul - 08:50:59 10° SW 08:54:02 37° SSE 08:57:06 10° E daylight
02 Jul - 10:27:05 10° W 10:30:21 75° N 10:33:38 10° ENE daylight
02 Jul - 12:03:40 10° WNW 12:06:57 73° N 12:10:13 10° E daylight
02 Jul - 13:40:12 10° W 13:43:19 41° SSW 13:46:25 10° SE daylight
03 Jul - 07:58:41 10° SSW 08:01:23 24° SE 08:04:06 10° E daylight
03 Jul - 09:34:16 10° WSW 09:37:33 87° SSE 09:40:50 10° ENE daylight
03 Jul - 11:10:51 10° W 11:14:07 65° N 11:17:23 10° E daylight
03 Jul - 12:47:21 10° WNW 12:50:36 62° SSW 12:53:49 10° ESE daylight
03 Jul - 14:24:37 10° WSW 14:26:33 15° SW 14:28:29 10° S daylight
04 Jul - 07:06:49 10° S 07:08:48 15° SE 07:10:49 10° E daylight
04 Jul - 08:41:32 10° WSW 08:44:47 63° SSE 08:48:02 10° ENE daylight
04 Jul - 10:18:01 10° W 10:21:16 65° N 10:24:32 10° E daylight
04 Jul - 11:54:33 10° WNW 11:57:50 85° SSW 12:01:06 10° ESE daylight
04 Jul - 13:31:18 10° W 13:33:58 23° SW 13:36:39 10° SSE daylight
05 Jul - 07:48:56 10° SW 07:52:03 42° SSE 07:55:10 10° E daylight
05 Jul - 09:25:09 10° W 09:28:25 72° N 09:31:42 10° ENE daylight
05 Jul - 11:01:44 10° WNW 11:05:01 76° NNE 11:08:18 10° E daylight
05 Jul - 12:38:17 10° W 12:41:20 36° SSW 12:44:22 10° SE daylight
06 Jul - 06:56:33 10° SSW 06:59:23 27° SE 07:02:13 10° E daylight
06 Jul - 08:32:18 10° WSW 08:35:35 87° NNW 08:38:52 10° ENE daylight
06 Jul - 10:08:54 10° WNW 10:12:10 67° N 10:15:26 10° E daylight
06 Jul - 11:45:24 10° WNW 11:48:37 55° SSW 11:51:49 10° SE daylight
06 Jul - 13:22:57 10° WSW 13:24:30 13° SW 13:26:03 10° SSW daylight
07 Jul - 06:04:29 10° S 06:06:45 18° SE 06:09:02 10° E daylight
07 Jul - 07:39:32 10° WSW 07:42:47 70° SSE 07:46:02 10° ENE daylight
07 Jul - 09:16:02 10° W 09:19:18 64° N 09:22:33 10° E daylight
07 Jul - 10:52:34 10° WNW 10:55:51 79° SSW 10:59:06 10° ESE daylight
07 Jul - 12:29:25 10° W 12:31:56 20° SW 12:34:26 10° SSE daylight
